ASL37Z LOWW-LYBE

Flight info

Callsign ASL37Z
Flight time 0h 47m
Altitude 37000
Route ARSIN DCT NALOX DCT BABIT T23 RIGMU
Aircraft A320/M-SDE3FGHIRWY/LB1

Departure

Time 2026-04-24 15:01
Airport Vienna International Airport (LOWW)

Arrival

Time 2026-04-24 15:48
Airport Belgrade Nikola Tesla Airport (LYBE)
Time Latitude Longitude Altitude Speed Heading
2026-04-24 14:52 48.11536 16.56788 610 ft 0 kts 206°
2026-04-24 14:53 48.11558 16.56804 627 ft 4 kts 202°
2026-04-24 14:54 48.11584 16.56816 626 ft 4 kts 188°
2026-04-24 14:54 48.11608 16.56815 624 ft 4 kts 145°
2026-04-24 14:54 48.11616 16.56805 610 ft 0 kts 116°
2026-04-24 14:57 48.11599 16.56857 624 ft 11 kts 117°
2026-04-24 14:57 48.11531 16.56912 612 ft 13 kts 195°
2026-04-24 14:57 48.11440 16.56850 614 ft 16 kts 206°
2026-04-24 14:57 48.11340 16.56866 613 ft 17 kts 117°
2026-04-24 14:58 48.11289 16.57034 614 ft 19 kts 114°
2026-04-24 14:58 48.11229 16.57221 621 ft 21 kts 117°
2026-04-24 14:58 48.11158 16.57428 610 ft 23 kts 117°
2026-04-24 14:58 48.11093 16.57617 622 ft 16 kts 123°
2026-04-24 14:59 48.10993 16.57611 610 ft 17 kts 205°
2026-04-24 14:59 48.10910 16.57498 612 ft 11 kts 278°
2026-04-24 14:59 48.10947 16.57437 623 ft 0 kts 295°
2026-04-24 15:00 48.10948 16.57433 610 ft 2 kts 295°
2026-04-24 15:00 48.10996 16.57282 610 ft 48 kts 295°
2026-04-24 15:00 48.11246 16.56512 615 ft 113 kts 296°
2026-04-24 15:00 48.11665 16.55228 623 ft 160 kts 295°
2026-04-24 15:01 48.12165 16.53663 1162 ft 167 kts 295°
2026-04-24 15:01 48.12328 16.51937 1955 ft 177 kts 262°
2026-04-24 15:01 48.11627 16.50316 2447 ft 203 kts 225°
2026-04-24 15:01 48.10394 16.49035 2791 ft 228 kts 216°
2026-04-24 15:02 48.08959 16.47794 3367 ft 245 kts 211°
2026-04-24 15:02 48.07230 16.47117 4013 ft 273 kts 180°
2026-04-24 15:02 48.05347 16.47596 4949 ft 282 kts 169°
2026-04-24 15:02 48.03455 16.48469 5979 ft 287 kts 162°
2026-04-24 15:03 48.02185 16.49168 6683 ft 290 kts 161°
2026-04-24 15:03 47.99667 16.50650 7901 ft 298 kts 159°
2026-04-24 15:03 47.97726 16.51816 8808 ft 303 kts 159°
2026-04-24 15:03 47.95746 16.52999 9682 ft 310 kts 159°
2026-04-24 15:04 47.93708 16.54201 10328 ft 325 kts 159°
2026-04-24 15:04 47.91526 16.55468 10652 ft 348 kts 160°
2026-04-24 15:04 47.89225 16.56807 11238 ft 358 kts 157°
2026-04-24 15:04 47.87095 16.58758 11968 ft 363 kts 140°
2026-04-24 15:05 47.85146 16.61186 12749 ft 367 kts 139°
2026-04-24 15:05 47.83185 16.63663 13538 ft 371 kts 138°
2026-04-24 15:05 47.81209 16.66179 14253 ft 375 kts 138°
2026-04-24 15:05 47.79221 16.68710 14938 ft 378 kts 138°
2026-04-24 15:06 47.77211 16.71261 15600 ft 382 kts 138°
2026-04-24 15:06 47.75181 16.73830 16264 ft 385 kts 138°
2026-04-24 15:06 47.73824 16.75542 16709 ft 388 kts 138°
2026-04-24 15:06 47.71081 16.78989 17616 ft 392 kts 138°
2026-04-24 15:07 47.68984 16.81617 18262 ft 396 kts 139°
2026-04-24 15:07 47.67582 16.83372 18683 ft 397 kts 139°
2026-04-24 15:07 47.65459 16.86032 19263 ft 401 kts 139°
2026-04-24 15:07 47.63314 16.88722 19902 ft 403 kts 139°
2026-04-24 15:08 47.61163 16.91419 20488 ft 408 kts 139°
2026-04-24 15:08 47.58986 16.94141 21062 ft 410 kts 139°
2026-04-24 15:08 47.56791 16.96876 21648 ft 413 kts 139°
2026-04-24 15:08 47.54580 16.99628 22222 ft 416 kts 139°
2026-04-24 15:09 47.52352 17.02402 22774 ft 419 kts 139°
2026-04-24 15:09 47.50113 17.05185 23317 ft 422 kts 139°
2026-04-24 15:09 47.47857 17.07995 23807 ft 425 kts 139°
2026-04-24 15:09 47.45587 17.10823 24269 ft 428 kts 139°
2026-04-24 15:10 47.43301 17.13669 24741 ft 430 kts 139°
2026-04-24 15:10 47.41028 17.16486 25194 ft 433 kts 139°
2026-04-24 15:10 47.38711 17.19344 25654 ft 435 kts 139°
2026-04-24 15:10 47.36375 17.22223 26116 ft 438 kts 139°
2026-04-24 15:11 47.34033 17.25106 26561 ft 440 kts 139°
2026-04-24 15:11 47.31681 17.28001 27047 ft 441 kts 138°
2026-04-24 15:11 47.29314 17.30913 27496 ft 443 kts 138°
2026-04-24 15:11 47.26939 17.33833 27932 ft 446 kts 138°
2026-04-24 15:12 47.24553 17.36769 28381 ft 448 kts 138°
2026-04-24 15:12 47.19732 17.42690 29255 ft 453 kts 138°
2026-04-24 15:12 47.17305 17.45666 29694 ft 456 kts 138°
2026-04-24 15:13 47.14859 17.48657 30117 ft 458 kts 138°
2026-04-24 15:13 47.12402 17.51656 30467 ft 461 kts 138°
2026-04-24 15:13 47.09922 17.54678 30826 ft 464 kts 138°
2026-04-24 15:13 47.07429 17.57711 31140 ft 467 kts 137°
2026-04-24 15:14 47.04919 17.60765 31500 ft 470 kts 137°
2026-04-24 15:14 47.02398 17.63828 31859 ft 471 kts 137°
2026-04-24 15:14 46.99902 17.66855 32340 ft 471 kts 137°
2026-04-24 15:14 46.97382 17.69904 32832 ft 470 kts 137°
2026-04-24 15:15 46.94862 17.72950 33322 ft 469 kts 137°
2026-04-24 15:15 46.92347 17.75989 33812 ft 469 kts 136°
2026-04-24 15:15 46.89829 17.79030 34267 ft 469 kts 136°
2026-04-24 15:15 46.87314 17.82066 34696 ft 468 kts 136°
2026-04-24 15:16 46.84799 17.85095 35144 ft 467 kts 136°
2026-04-24 15:16 46.82287 17.88112 35556 ft 467 kts 136°
2026-04-24 15:16 46.79778 17.91118 35969 ft 466 kts 136°
2026-04-24 15:16 46.77270 17.94124 36397 ft 464 kts 136°
2026-04-24 15:17 46.74780 17.97107 36819 ft 463 kts 136°
2026-04-24 15:17 46.72283 18.00100 37003 ft 464 kts 136°
2026-04-24 15:17 46.67301 18.06057 37032 ft 462 kts 136°
2026-04-24 15:18 46.62366 18.11946 37035 ft 461 kts 136°
2026-04-24 15:18 46.57391 18.17846 37032 ft 461 kts 136°
2026-04-24 15:19 46.52412 18.23730 37033 ft 460 kts 136°
2026-04-24 15:19 46.47444 18.29614 37034 ft 459 kts 136°
2026-04-24 15:20 46.42485 18.35470 37033 ft 459 kts 136°
2026-04-24 15:20 46.37547 18.41274 37052 ft 459 kts 136°
2026-04-24 15:21 46.32580 18.47096 37040 ft 460 kts 136°
2026-04-24 15:21 46.27609 18.52927 37029 ft 460 kts 136°
2026-04-24 15:22 46.22640 18.58752 37040 ft 459 kts 136°
2026-04-24 15:23 46.15214 18.67404 37052 ft 458 kts 136°
2026-04-24 15:23 46.07758 18.76043 37041 ft 458 kts 136°
2026-04-24 15:25 45.96150 18.89450 37032 ft 457 kts 137°
2026-04-24 15:25 45.90851 18.96743 36244 ft 457 kts 126°
2026-04-24 15:26 45.84581 19.07408 33677 ft 468 kts 126°
2026-04-24 15:27 45.78320 19.17995 31589 ft 462 kts 126°
2026-04-24 15:27 45.72128 19.28391 29745 ft 451 kts 126°
2026-04-24 15:28 45.64131 19.41756 27350 ft 432 kts 127°
2026-04-24 15:29 45.60280 19.48176 26410 ft 419 kts 127°
2026-04-24 15:30 45.54678 19.57486 25092 ft 405 kts 127°
2026-04-24 15:31 45.47416 19.69502 23329 ft 393 kts 127°
2026-04-24 15:32 45.40432 19.81042 21529 ft 378 kts 127°
2026-04-24 15:33 45.33660 19.92147 19701 ft 368 kts 127°
2026-04-24 15:33 45.28656 20.00335 18310 ft 363 kts 127°
2026-04-24 15:34 45.25357 20.05730 17351 ft 358 kts 128°
2026-04-24 15:35 45.20487 20.13652 15984 ft 352 kts 128°
2026-04-24 15:35 45.17291 20.18839 15095 ft 350 kts 129°
2026-04-24 15:35 45.15687 20.21440 14642 ft 349 kts 129°
2026-04-24 15:36 45.14091 20.24029 13881 ft 349 kts 129°
2026-04-24 15:36 45.10892 20.29221 11961 ft 349 kts 130°
2026-04-24 15:36 45.09295 20.31800 11041 ft 348 kts 130°
2026-04-24 15:37 45.07730 20.34321 10673 ft 330 kts 130°
2026-04-24 15:37 45.06246 20.36704 10263 ft 318 kts 130°
2026-04-24 15:37 45.04798 20.39029 9671 ft 313 kts 131°
2026-04-24 15:37 45.03392 20.41294 9129 ft 306 kts 130°
2026-04-24 15:38 45.01998 20.43540 8737 ft 303 kts 130°
2026-04-24 15:38 45.00606 20.45779 8333 ft 304 kts 130°
2026-04-24 15:38 44.99211 20.48022 7976 ft 303 kts 130°
2026-04-24 15:38 44.97825 20.50255 7587 ft 303 kts 131°
2026-04-24 15:39 44.96450 20.52468 7312 ft 297 kts 131°
2026-04-24 15:39 44.95097 20.54638 6751 ft 293 kts 131°
2026-04-24 15:39 44.93761 20.56779 6311 ft 288 kts 131°
2026-04-24 15:39 44.92441 20.58890 5895 ft 286 kts 131°
2026-04-24 15:40 44.91103 20.60976 5506 ft 287 kts 136°
2026-04-24 15:40 44.89471 20.62569 5136 ft 286 kts 156°
2026-04-24 15:40 44.87583 20.63338 4856 ft 280 kts 176°
2026-04-24 15:40 44.85677 20.63255 4668 ft 265 kts 193°
2026-04-24 15:41 44.83922 20.62817 4543 ft 246 kts 193°
2026-04-24 15:41 44.82288 20.62419 4360 ft 234 kts 194°
2026-04-24 15:41 44.80694 20.62034 4240 ft 232 kts 193°
2026-04-24 15:41 44.79111 20.61650 4132 ft 230 kts 193°
2026-04-24 15:42 44.77538 20.61264 4029 ft 230 kts 194°
2026-04-24 15:42 44.75965 20.60868 3925 ft 229 kts 196°
2026-04-24 15:42 44.74524 20.60071 3828 ft 224 kts 216°
2026-04-24 15:42 44.73346 20.58678 3601 ft 217 kts 234°
2026-04-24 15:43 44.72575 20.56884 3524 ft 213 kts 252°
2026-04-24 15:43 44.72240 20.54861 3440 ft 212 kts 269°
2026-04-24 15:43 44.72364 20.52821 3357 ft 208 kts 285°
2026-04-24 15:43 44.72918 20.50951 3293 ft 208 kts 301°
2026-04-24 15:44 44.73680 20.49244 3109 ft 201 kts 302°
2026-04-24 15:44 44.74400 20.47637 2878 ft 186 kts 303°
2026-04-24 15:44 44.75069 20.46140 2635 ft 177 kts 302°
2026-04-24 15:44 44.75697 20.44733 2409 ft 162 kts 302°
2026-04-24 15:45 44.76264 20.43462 2207 ft 144 kts 303°
2026-04-24 15:45 44.76773 20.42319 2012 ft 134 kts 303°
2026-04-24 15:45 44.77260 20.41227 1840 ft 129 kts 304°
2026-04-24 15:45 44.77732 20.40166 1664 ft 127 kts 303°
2026-04-24 15:46 44.78201 20.39115 1492 ft 126 kts 303°
2026-04-24 15:46 44.78667 20.38067 1326 ft 127 kts 304°
2026-04-24 15:46 44.79131 20.37028 1127 ft 127 kts 301°
2026-04-24 15:46 44.79598 20.35973 997 ft 127 kts 301°
2026-04-24 15:47 44.80065 20.34924 801 ft 127 kts 300°
2026-04-24 15:47 44.80533 20.33870 625 ft 126 kts 299°
2026-04-24 15:47 44.80989 20.32835 453 ft 126 kts 300°
2026-04-24 15:47 44.81456 20.31788 325 ft 121 kts 302°
2026-04-24 15:48 44.81845 20.30912 308 ft 84 kts 302°
2026-04-24 15:48 44.82069 20.30408 305 ft 46 kts 302°
2026-04-24 15:48 44.82172 20.30042 307 ft 29 kts 267°
2026-04-24 15:48 44.82170 20.29872 307 ft 25 kts 269°
2026-04-24 15:49 44.82184 20.29678 308 ft 17 kts 287°
2026-04-24 15:49 44.82130 20.29553 310 ft 18 kts 212°
2026-04-24 15:49 44.82093 20.29443 308 ft 12 kts 313°
2026-04-24 15:49 44.82142 20.29339 308 ft 10 kts 303°
2026-04-24 15:50 44.82188 20.29239 307 ft 14 kts 302°
2026-04-24 15:50 44.82233 20.29108 307 ft 13 kts 258°
2026-04-24 15:50 44.82184 20.29064 307 ft 5 kts 212°
2026-04-24 15:50 44.82169 20.29051 307 ft 0 kts 212°